Change the Weather History Date:

Monday, August 12, 2013

  Actual Average Record
Temperature  
Mean Temperature 68 °F 66 °F  
Max Temperature 87 °F 86 °F 100 °F (1977)
Min Temperature 48 °F 46 °F 35 °F (1951)
Degree Days  
Heating Degree Days 0 2  
Month to date heating degree days 11 21  
Since 1 June heating degree days 216 307  
Since 1 July heating degree days 31 90  
Cooling Degree Days 3 3  
Month to date cooling degree days 34 42  
Year to date cooling degree days 249 168  
Since 1 June cooling degree days 240 163  
Growing Degree Days 17 (Base 50)    
Moisture  
Dew Point 45 °F    
Average Humidity 54    
Maximum Humidity 86    
Minimum Humidity 21    
Precipitation  
Precipitation T in 0.02 in 0.37 in (2014)
Month to date precipitation 0.03 0.19  
Year to date precipitation 1.95 5.42  
Sea Level Pressure  
Sea Level Pressure 29.98 in    
Wind  
Wind Speed 6 mph (NW)    
Max Wind Speed 18 mph    
Max Gust Speed 25 mph    
Visibility 10 miles    
Events Thunderstorm    
T = Trace of Precipitation, MM = Missing Value Source: NWS Daily Summary

Daily Weather History Graph

Daily Weather History Graph

Search for Another Location

Airport or City:

Trip Planner

Search our weather history database for the weather conditions in past years. The results will help you decide how hot, cold, wet, or windy it might be!

Date:

Astronomy

Aug. 12, 2013 Rise Set
Actual Time 6:04 AM PDT 8:13 PM PDT
Civil Twilight 5:33 AM PDT 8:45 PM PDT
Nautical Twilight 4:53 AM PDT 9:24 PM PDT
Astronomical Twilight 4:10 AM PDT 10:07 PM PDT
Moon 12:17 PM PDT (8/12) 10:53 PM PDT (8/12)
Length of Visible Light 15h 12m
Length of Day
14h 08m
Waxing Crescent, 32% of the Moon is Illuminated
Aug 12
Waxing Crescent
Aug 14
First Quarter
Aug 20
Full
Aug 28
Last Quarter
Sep 5
New

Hourly Weather History & Observations

Time (PDT) Temp. Dew Point Humidity Pressure Visibility Wind Dir Wind Speed Gust Speed Precip Events Conditions
12:56 AM 59.0 °F 48.0 °F 67% 29.99 in 10.0 mi WNW 5.8 mph - N/A   Clear
1:56 AM 55.0 °F 48.0 °F 77% 29.99 in 10.0 mi Calm Calm - N/A   Clear
2:56 AM 53.1 °F 46.9 °F 80% 29.99 in 10.0 mi Calm Calm - N/A   Clear
3:56 AM 52.0 °F 46.9 °F 83% 30.00 in 10.0 mi South 4.6 mph - N/A   Clear
4:56 AM 48.9 °F 45.0 °F 86% 30.00 in 10.0 mi SSE 5.8 mph - N/A   Clear
5:56 AM 48.9 °F 45.0 °F 86% 30.01 in 10.0 mi South 5.8 mph - N/A   Clear
6:56 AM 51.1 °F 46.0 °F 83% 30.02 in 10.0 mi SSE 4.6 mph - N/A   Clear
7:56 AM 57.0 °F 46.9 °F 69% 30.02 in 10.0 mi ESE 3.5 mph - N/A   Clear
8:56 AM 62.1 °F 48.0 °F 60% 30.01 in 10.0 mi Calm Calm - N/A   Clear
9:56 AM 68.0 °F 48.9 °F 50% 30.01 in 10.0 mi Calm Calm - N/A   Clear
10:56 AM 72.0 °F 48.0 °F 43% 30.00 in 10.0 mi Variable 3.5 mph - N/A   Clear
11:56 AM 77.0 °F 46.9 °F 34% 29.98 in 10.0 mi NW 6.9 mph - N/A   Clear
12:56 PM 79.0 °F 45.0 °F 30% 29.96 in 10.0 mi WNW 6.9 mph - N/A   Clear
1:56 PM 80.1 °F 45.0 °F 29% 29.95 in 10.0 mi Variable 4.6 mph - N/A   Clear
2:56 PM 81.0 °F 43.0 °F 26% 29.94 in 10.0 mi Calm Calm - N/A   Clear
3:56 PM 86.0 °F 42.1 °F 21% 29.92 in 10.0 mi North 8.1 mph - N/A   Clear
4:39 PM 82.4 °F 42.8 °F 25% 29.98 in 10.0 mi North 11.5 mph 16.1 mph N/A Thunderstorm Clear
4:56 PM 82.9 °F 43.0 °F 24% 29.92 in 10.0 mi NNW 13.8 mph 19.6 mph N/A   Clear
5:56 PM 81.0 °F 39.0 °F 22% 29.93 in 10.0 mi NW 13.8 mph - 0.00 in   Clear
6:56 PM 77.0 °F 39.9 °F 26% 29.95 in 10.0 mi WNW 16.1 mph 23.0 mph N/A   Clear
7:56 PM 75.9 °F 41.0 °F 29% 29.98 in 10.0 mi WNW 11.5 mph - N/A   Mostly Cloudy
8:56 PM 72.0 °F 45.0 °F 38% 29.99 in 10.0 mi NW 9.2 mph - N/A   Partly Cloudy
9:56 PM 69.1 °F 46.0 °F 44% 30.00 in 10.0 mi NNW 8.1 mph - N/A   Clear
10:56 PM 66.0 °F 46.0 °F 48% 30.01 in 10.0 mi WNW 8.1 mph - N/A   Clear
11:56 PM 59.0 °F 45.0 °F 60% 30.02 in 10.0 mi Calm Calm - N/A   Clear